Вернуться в каталог

SL-23 R/B

АктивенMEO
NORAD 33059·ROCKET BODY·🇷🇺 Russia

Запущен Apr 28, 2008 с Baikonur Cosmodrome

Loading…

Ближайшие Пролёты (ближайшие 24 часа)

TLE

СвежийSource: Space-Track

Эпоха: Sep 14, 2026, 12:18 UTC

1 33059U 08022B   26257.51299530 -.00000170  00000-0  00000+0 0  9996
2 33059  13.8582  31.7244 0542406  58.3123 130.5833  0.95533797 63823

Отслеживайте SL-23 R/B в реальном времени с AllMySat

Download on the App Store